When you browse on this site, cookies collect data to enhance your experience and personalize the content and advertising you see.
Visit our Privacy Policy to learn more. By continuing to use the site, you agree to this use of cookies and data.
  • In Hungary
  • List of Countries
  • For 7 days
  • Water Temperature
  • Weather Map
  • News
  • Weather Widgets
  • user-avatar
    Login

    Hourly Weather Oisterwijk

    Today, 20 August, Tuesday

    Time Temperature Precipitation Wind Pressure Humidity
    00:00 +12°C° 0 mm 4 mps 763 mmHg 80%
    01:00 +12°C° 0 mm 4 mps 763 mmHg 82%
    02:00 +12°C° 0 mm 4 mps 763 mmHg 85%
    03:00 +12°C° 0 mm 3 mps 763 mmHg 88%
    04:00 +12°C° 0 mm 3 mps 764 mmHg 88%
    05:00 +13°C° 0 mm 3 mps 764 mmHg 87%
    06:00 +13°C° 0 mm 3 mps 764 mmHg 87%
    07:00 +16°C° 0 mm 3 mps 764 mmHg 80%
    08:00 +17°C° 0 mm 3 mps 764 mmHg 74%
    09:00 +19°C° 0 mm 4 mps 765 mmHg 68%
    10:00 +20°C° 0.1 mm 4 mps 765 mmHg 64%
    11:00 +20°C° 0.1 mm 4 mps 765 mmHg 60%
    12:00 +21°C° 0.1 mm 4 mps 765 mmHg 57%
    13:00 +21°C° 0.4 mm 4 mps 765 mmHg 58%
    14:00 +21°C° 0.4 mm 4 mps 765 mmHg 59%
    15:00 +21°C° 0.4 mm 4 mps 765 mmHg 61%
    16:00 +20°C° 0.1 mm 4 mps 766 mmHg 64%
    17:00 +18°C° 0.1 mm 3 mps 766 mmHg 68%
    18:00 +17°C° 0.1 mm 3 mps 766 mmHg 71%
    19:00 +16°C° 0 mm 2 mps 767 mmHg 75%
    20:00 +15°C° 0 mm 2 mps 767 mmHg 78%
    21:00 +14°C° 0 mm 1 mps 768 mmHg 81%
    22:00 +13°C° 0 mm 1 mps 768 mmHg 82%
    23:00 +13°C° 0 mm 1 mps 768 mmHg 83%

    Tomorrow, 21 August, Wednesday

    Time Temperature Precipitation Wind Pressure Humidity
    00:00 +13°C° 0 mm 1 mps 768 mmHg 84%
    01:00 +12°C° 0 mm 1 mps 768 mmHg 86%
    02:00 +12°C° 0 mm 2 mps 768 mmHg 87%
    03:00 +12°C° 0 mm 2 mps 769 mmHg 89%
    04:00 +13°C° 0 mm 2 mps 769 mmHg 88%
    05:00 +13°C° 0 mm 2 mps 769 mmHg 87%
    06:00 +13°C° 0 mm 2 mps 769 mmHg 86%
    07:00 +15°C° 0 mm 2 mps 769 mmHg 79%
    08:00 +17°C° 0 mm 2 mps 769 mmHg 72%
    09:00 +19°C° 0 mm 2 mps 769 mmHg 65%
    10:00 +20°C° 0 mm 2 mps 769 mmHg 60%
    11:00 +21°C° 0 mm 2 mps 769 mmHg 55%
    12:00 +23°C° 0 mm 2 mps 768 mmHg 50%
    13:00 +23°C° 0 mm 1 mps 768 mmHg 49%
    14:00 +23°C° 0 mm 1 mps 768 mmHg 48%
    15:00 +21°C° 0 mm 0 mps 768 mmHg 47%
    16:00 +22°C° 0 mm 1 mps 768 mmHg 52%
    17:00 +21°C° 0 mm 1 mps 768 mmHg 57%
    18:00 +20°C° 0 mm 1 mps 767 mmHg 62%
    19:00 +19°C° 0 mm 1 mps 768 mmHg 64%
    20:00 +18°C° 0 mm 1 mps 768 mmHg 67%
    21:00 +16°C° 0 mm 2 mps 768 mmHg 69%
    22:00 +15°C° 0 mm 2 mps 768 mmHg 70%
    23:00 +15°C° 0 mm 2 mps 768 mmHg 72%

    Day after tomorrow, 22 August, Thursday

    Time Temperature Precipitation Wind Pressure Humidity
    00:00 +14°C° 0 mm 2 mps 767 mmHg 73%
    01:00 +14°C° 0 mm 1 mps 767 mmHg 74%
    02:00 +14°C° 0 mm 1 mps 767 mmHg 74%
    03:00 +13°C° 0 mm 1 mps 767 mmHg 75%
    04:00 +14°C° 0 mm 1 mps 767 mmHg 74%
    05:00 +14°C° 0 mm 1 mps 767 mmHg 74%
    06:00 +15°C° 0 mm 2 mps 767 mmHg 74%
    07:00 +17°C° 0 mm 2 mps 767 mmHg 68%
    08:00 +19°C° 0 mm 2 mps 767 mmHg 62%
    09:00 +21°C° 0 mm 2 mps 767 mmHg 56%
    10:00 +22°C° 0 mm 3 mps 767 mmHg 54%
    11:00 +22°C° 0 mm 3 mps 767 mmHg 51%
    12:00 +24°C° 0 mm 3 mps 767 mmHg 48%
    13:00 +24°C° 0 mm 3 mps 767 mmHg 48%
    14:00 +24°C° 0 mm 3 mps 767 mmHg 48%
    15:00 +25°C° 0 mm 3 mps 767 mmHg 48%
    16:00 +23°C° 0 mm 2 mps 767 mmHg 53%
    17:00 +21°C° 0 mm 2 mps 767 mmHg 58%
    18:00 +19°C° 0 mm 2 mps 767 mmHg 64%
    19:00 +19°C° 0 mm 1 mps 768 mmHg 63%
    20:00 +18°C° 0 mm 1 mps 768 mmHg 62%
    21:00 +15°C° 0 mm 0 mps 768 mmHg 61%
    22:00 +14°C° 0 mm 0 mps 768 mmHg 62%
    23:00 +14°C° 0 mm 0 mps 768 mmHg 62%

    23 August, Friday

    Time Temperature Precipitation Wind Pressure Humidity
    00:00 +13°C° 0 mm 0 mps 768 mmHg 63%
    01:00 +13°C° 0 mm 0 mps 768 mmHg 63%
    02:00 +13°C° 0 mm 0 mps 768 mmHg 64%
    03:00 +13°C° 0 mm 0 mps 768 mmHg 65%
    04:00 +13°C° 0 mm 0 mps 768 mmHg 66%
    05:00 +14°C° 0 mm 0 mps 768 mmHg 67%
    06:00 +14°C° 0 mm 0 mps 768 mmHg 68%
    07:00 +18°C° 0 mm 1 mps 768 mmHg 63%
    08:00 +20°C° 0 mm 1 mps 768 mmHg 59%
    09:00 +22°C° 0 mm 1 mps 768 mmHg 54%
    10:00 +24°C° 0 mm 1 mps 768 mmHg 52%
    11:00 +25°C° 0 mm 2 mps 767 mmHg 50%
    12:00 +26°C° 0 mm 2 mps 767 mmHg 48%
    13:00 +26°C° 0 mm 2 mps 767 mmHg 47%
    14:00 +27°C° 0 mm 2 mps 766 mmHg 47%
    15:00 +27°C° 0 mm 2 mps 766 mmHg 47%
    16:00 +26°C° 0 mm 2 mps 766 mmHg 53%
    17:00 +25°C° 0 mm 3 mps 766 mmHg 60%
    18:00 +22°C° 0 mm 3 mps 765 mmHg 66%
    19:00 +21°C° 0 mm 3 mps 765 mmHg 67%
    20:00 +20°C° 0 mm 3 mps 765 mmHg 68%
    21:00 +19°C° 0 mm 3 mps 765 mmHg 68%
    22:00 +18°C° 0 mm 3 mps 765 mmHg 68%
    23:00 +18°C° 0 mm 3 mps 765 mmHg 68%

    24 August, Saturday

    Time Temperature Precipitation Wind Pressure Humidity
    00:00 +18°C° 0 mm 3 mps 765 mmHg 67%
    01:00 +17°C° 0 mm 2 mps 764 mmHg 69%
    02:00 +17°C° 0 mm 2 mps 764 mmHg 72%
    03:00 +16°C° 0 mm 2 mps 764 mmHg 74%
    04:00 +18°C° 0 mm 1 mps 763 mmHg 74%
    05:00 +18°C° 0 mm 1 mps 763 mmHg 75%
    06:00 +19°C° 0 mm 1 mps 763 mmHg 75%
    07:00 +21°C° 0 mm 1 mps 763 mmHg 69%
    08:00 +23°C° 0 mm 2 mps 763 mmHg 63%
    09:00 +25°C° 0 mm 2 mps 763 mmHg 57%
    10:00 +26°C° 0 mm 2 mps 763 mmHg 53%
    11:00 +27°C° 0 mm 2 mps 762 mmHg 50%
    12:00 +29°C° 0 mm 2 mps 762 mmHg 46%
    13:00 +29°C° 0 mm 2 mps 762 mmHg 45%
    14:00 +29°C° 0 mm 2 mps 761 mmHg 44%
    15:00 +29°C° 0 mm 2 mps 761 mmHg 43%
    16:00 +28°C° 0 mm 2 mps 761 mmHg 49%
    17:00 +26°C° 0 mm 2 mps 761 mmHg 55%
    18:00 +25°C° 0 mm 2 mps 761 mmHg 60%
    19:00 +24°C° 0 mm 2 mps 761 mmHg 61%
    20:00 +21°C° 0 mm 2 mps 761 mmHg 62%
    21:00 +20°C° 0 mm 2 mps 761 mmHg 63%
    22:00 +20°C° 0 mm 2 mps 761 mmHg 64%
    23:00 +19°C° 0 mm 2 mps 761 mmHg 66%

    25 August, Sunday

    Time Temperature Precipitation Wind Pressure Humidity
    00:00 +19°C° 0 mm 2 mps 761 mmHg 67%
    01:00 +19°C° 0 mm 1 mps 761 mmHg 70%
    02:00 +19°C° 0 mm 1 mps 761 mmHg 73%
    03:00 +18°C° 0 mm 1 mps 760 mmHg 76%
    04:00 +19°C° 0 mm 1 mps 760 mmHg 77%
    05:00 +19°C° 0 mm 1 mps 760 mmHg 77%
    06:00 +19°C° 0 mm 1 mps 760 mmHg 78%
    07:00 +21°C° 0 mm 1 mps 761 mmHg 71%
    08:00 +23°C° 0 mm 1 mps 761 mmHg 65%
    09:00 +25°C° 0 mm 1 mps 761 mmHg 58%
    10:00 +26°C° 0 mm 1 mps 761 mmHg 53%
    11:00 +28°C° 0 mm 1 mps 760 mmHg 49%
    12:00 +29°C° 0 mm 2 mps 760 mmHg 45%
    13:00 +29°C° 0 mm 2 mps 760 mmHg 44%
    14:00 +29°C° 0 mm 2 mps 760 mmHg 44%
    15:00 +29°C° 0 mm 2 mps 760 mmHg 44%
    16:00 +28°C° 0 mm 2 mps 760 mmHg 49%
    17:00 +26°C° 0 mm 2 mps 760 mmHg 55%
    18:00 +25°C° 0 mm 2 mps 760 mmHg 60%
    19:00 +23°C° 0 mm 2 mps 760 mmHg 64%
    20:00 +21°C° 0 mm 2 mps 760 mmHg 68%
    21:00 +20°C° 0 mm 2 mps 761 mmHg 72%
    22:00 +21°C° 0 mm 1 mps 761 mmHg 73%
    23:00 +20°C° 0 mm 1 mps 760 mmHg 75%
    Show more